Paso Robles, CA

8:41 AM PST on February 27, 2017 (GMT -0800)
Paso Robles Municipal

Weather History for KPRB - December, 2012

Change the Weather History Date:

Wednesday, December 5, 2012

  Actual Average Record
Temperature  
Mean Temperature 50 °F 47 °F  
Max Temperature 55 °F 60 °F 77 °F (1962)
Min Temperature 48 °F 34 °F 17 °F (2013)
Degree Days  
Heating Degree Days 15 18  
Month to date heating degree days 34 87  
Since 1 July heating degree days 458 636  
Cooling Degree Days 0 0  
Month to date cooling degree days 0 0  
Year to date cooling degree days 1147 927  
Moisture  
Dew Point 50 °F    
Average Humidity 97    
Maximum Humidity 100    
Minimum Humidity 93    
Precipitation  
Precipitation 0.00 in 0.05 in 1.95 in (1997)
Month to date precipitation 0.47 0.23  
Year to date precipitation 7.07 11.00  
Since 1 July precipitation 1.20  
Sea Level Pressure  
Sea Level Pressure 30.20 in    
Wind  
Wind Speed 1 mph (ENE)    
Max Wind Speed 4 mph    
Max Gust Speed -    
Visibility 2 miles    
Events Fog    
T = Trace of Precipitation, MM = Missing Value Source: NWS Daily Summary

Daily Weather History Graph

Daily Weather History Graph

Search for Another Location

Airport or City:

Trip Planner

Search our weather history database for the weather conditions in past years. The results will help you decide how hot, cold, wet, or windy it might be!

Date:

Astronomy

Dec. 05, 2012 Rise Set
Actual Time 6:57 AM PST 4:48 PM PST
Civil Twilight 6:29 AM PST 5:17 PM PST
Nautical Twilight 5:57 AM PST 5:48 PM PST
Astronomical Twilight 5:26 AM PST 6:19 PM PST
Moon 11:33 PM PST (12/5) 11:33 AM PST (12/5)
Length of Visible Light 10h 47m
Length of Day
9h 51m
Waning Gibbous, 58% of the Moon is Illuminated
Dec 5
Waning Gibbous
Dec 6
Last Quarter
Dec 13
New
Dec 19
First Quarter
Dec 28
Full

Hourly Weather History & Observations

Time (PST) Temp. Dew Point Humidity Pressure Visibility Wind Dir Wind Speed Gust Speed Precip Events Conditions
12:01 AM 50.0 °F 50.0 °F 100% 30.22 in 9.0 mi Calm Calm - N/A   Scattered Clouds
12:09 AM 50.0 °F 50.0 °F 100% 30.22 in 9.0 mi Calm Calm - N/A   Mostly Cloudy
12:42 AM 51.8 °F 50.0 °F 94% 30.22 in 5.0 mi Calm Calm - N/A   Overcast
12:53 AM 51.1 °F 50.0 °F 96% 30.21 in 5.0 mi Calm Calm - N/A   Overcast
1:34 AM 51.8 °F 51.8 °F 100% 30.20 in 1.8 mi Calm Calm - N/A   Overcast
1:46 AM 51.8 °F 50.0 °F 94% 30.20 in 0.5 mi Calm Calm - N/A Fog Fog
1:53 AM 51.1 °F 51.1 °F 100% 30.20 in 0.5 mi Calm Calm - N/A Fog Fog
2:00 AM 51.8 °F 51.8 °F 100% 30.21 in 0.2 mi Calm Calm - N/A Fog Fog
2:53 AM 51.1 °F 51.1 °F 100% 30.20 in 0.2 mi Calm Calm - N/A Fog Fog
3:04 AM 51.8 °F 51.8 °F 100% 30.20 in 0.5 mi Calm Calm - N/A Fog Fog
3:49 AM 51.8 °F 50.0 °F 94% 30.21 in 2.0 mi Calm Calm - N/A   Overcast
3:53 AM 51.1 °F 50.0 °F 96% 30.20 in 1.2 mi NNE 3.5 mph - N/A   Overcast
4:11 AM 50.0 °F 50.0 °F 100% 30.19 in 3.0 mi East 4.6 mph - N/A   Overcast
4:34 AM 50.0 °F 48.2 °F 94% 30.20 in 1.8 mi Calm Calm - N/A   Overcast
4:44 AM 50.0 °F 48.2 °F 94% 30.19 in 0.2 mi Calm Calm - N/A Fog Fog
4:53 AM 50.0 °F 48.9 °F 96% 30.19 in 0.2 mi Calm Calm - N/A Fog Fog
6:44 AM 48.2 °F 46.4 °F 93% 30.20 in 0.5 mi East 4.6 mph - N/A Fog Fog
6:53 AM 48.0 °F 48.0 °F 100% 30.20 in 0.5 mi ENE 3.5 mph - N/A Fog Fog
7:21 AM 48.2 °F 48.2 °F 100% 30.21 in 0.2 mi Calm Calm - N/A Fog Fog
7:53 AM 48.9 °F 48.0 °F 97% 30.21 in 0.2 mi Calm Calm - N/A Fog Fog
8:53 AM 50.0 °F 48.9 °F 96% 30.21 in 0.2 mi Calm Calm - N/A Fog Fog
9:28 AM 50.0 °F 50.0 °F 100% 30.21 in 0.8 mi Calm Calm - 0.01 in   Mist
9:53 AM 51.1 °F 51.1 °F 100% 30.21 in 0.8 mi Calm Calm - 0.01 in   Overcast
10:10 AM 51.8 °F 51.8 °F 100% 30.21 in 1.8 mi South 3.5 mph - N/A   Overcast
10:17 AM 51.8 °F 50.0 °F 94% 30.21 in 2.5 mi Calm Calm - N/A   Overcast
10:27 AM 51.8 °F 51.8 °F 100% 30.20 in 3.0 mi Calm Calm - N/A   Overcast
10:53 AM 52.0 °F 51.1 °F 97% 30.19 in 10.0 mi Calm Calm - N/A   Overcast
11:32 AM 55.4 °F 51.8 °F 88% 30.18 in 10.0 mi Calm Calm - N/A   Scattered Clouds